When you browse on this site, cookies collect data to enhance your experience and personalize the content and advertising you see.
Visit our Privacy Policy to learn more. By continuing to use the site, you agree to this use of cookies and data.
  • In Hungary
  • List of Countries
  • For 7 days
  • Water Temperature
  • Weather Map
  • News
  • Weather Widgets
  • user-avatar
    Login

    Hourly Weather Basse Santa Su

    Today, 26 May, Tuesday

    Time Temperature Precipitation Wind Pressure Humidity
    00:00 +30°C° 0 mm 3 mps 756 mmHg 35%
    01:00 +29°C° 0 mm 3 mps 756 mmHg 42%
    02:00 +27°C° 0 mm 3 mps 756 mmHg 50%
    03:00 +26°C° 0 mm 2 mps 756 mmHg 54%
    04:00 +25°C° 0 mm 2 mps 756 mmHg 58%
    05:00 +24°C° 0 mm 2 mps 757 mmHg 64%
    06:00 +27°C° 0 mm 2 mps 757 mmHg 55%
    07:00 +29°C° 0 mm 2 mps 757 mmHg 46%
    08:00 +31°C° 0 mm 2 mps 757 mmHg 38%
    09:00 +35°C° 0 mm 1 mps 757 mmHg 29%
    10:00 +41°C° 0 mm 1 mps 757 mmHg 20%
    11:00 +42°C° 0 mm 0 mps 756 mmHg 12%
    12:00 +46°C° 0 mm 1 mps 756 mmHg 10%
    13:00 +46°C° 0 mm 1 mps 755 mmHg 9%
    14:00 +48°C° 0 mm 2 mps 754 mmHg 7%
    15:00 +47°C° 0 mm 2 mps 753 mmHg 7%
    16:00 +45°C° 0 mm 1 mps 753 mmHg 8%
    17:00 +45°C° 0 mm 1 mps 753 mmHg 8%
    18:00 +42°C° 0 mm 1 mps 753 mmHg 10%
    19:00 +40°C° 0 mm 1 mps 754 mmHg 12%
    20:00 +36°C° 0 mm 1 mps 755 mmHg 13%
    21:00 +35°C° 0 mm 2 mps 755 mmHg 24%
    22:00 +34°C° 0 mm 3 mps 756 mmHg 35%
    23:00 +32°C° 0 mm 4 mps 756 mmHg 46%

    Tomorrow, 27 May, Wednesday

    Time Temperature Precipitation Wind Pressure Humidity
    00:00 +30°C° 0 mm 4 mps 756 mmHg 50%
    01:00 +29°C° 0 mm 3 mps 756 mmHg 53%
    02:00 +27°C° 0 mm 3 mps 756 mmHg 56%
    03:00 +27°C° 0 mm 3 mps 756 mmHg 60%
    04:00 +26°C° 0 mm 3 mps 756 mmHg 65%
    05:00 +25°C° 0 mm 2 mps 756 mmHg 69%
    06:00 +26°C° 0 mm 2 mps 757 mmHg 64%
    07:00 +28°C° 0 mm 2 mps 757 mmHg 59%
    08:00 +29°C° 0 mm 3 mps 757 mmHg 54%
    09:00 +34°C° 0 mm 2 mps 757 mmHg 43%
    10:00 +38°C° 0 mm 2 mps 757 mmHg 31%
    11:00 +42°C° 0 mm 1 mps 756 mmHg 19%
    12:00 +44°C° 0 mm 1 mps 755 mmHg 16%
    13:00 +46°C° 0 mm 1 mps 755 mmHg 14%
    14:00 +45°C° 0 mm 0 mps 754 mmHg 11%
    15:00 +43°C° 0 mm 0 mps 754 mmHg 11%
    16:00 +45°C° 0 mm 1 mps 753 mmHg 11%
    17:00 +44°C° 0 mm 1 mps 753 mmHg 11%
    18:00 +42°C° 0 mm 1 mps 754 mmHg 13%
    19:00 +40°C° 0 mm 1 mps 755 mmHg 16%
    20:00 +38°C° 0 mm 2 mps 756 mmHg 18%
    21:00 +36°C° 0 mm 3 mps 756 mmHg 28%
    22:00 +34°C° 0 mm 3 mps 756 mmHg 38%
    23:00 +32°C° 0 mm 4 mps 757 mmHg 48%

    Day after tomorrow, 28 May, Thursday

    Time Temperature Precipitation Wind Pressure Humidity
    00:00 +30°C° 0 mm 4 mps 757 mmHg 51%
    01:00 +30°C° 0 mm 3 mps 756 mmHg 53%
    02:00 +29°C° 0 mm 3 mps 756 mmHg 56%
    03:00 +28°C° 0 mm 3 mps 756 mmHg 61%
    04:00 +27°C° 0 mm 2 mps 757 mmHg 66%
    05:00 +26°C° 0 mm 2 mps 757 mmHg 71%
    06:00 +28°C° 0 mm 2 mps 757 mmHg 66%
    07:00 +29°C° 0 mm 3 mps 758 mmHg 61%
    08:00 +30°C° 0 mm 3 mps 758 mmHg 56%
    09:00 +34°C° 0 mm 3 mps 757 mmHg 47%
    10:00 +36°C° 0 mm 3 mps 757 mmHg 39%
    11:00 +39°C° 0 mm 3 mps 756 mmHg 30%
    12:00 +42°C° 0 mm 3 mps 756 mmHg 26%
    13:00 +42°C° 0 mm 2 mps 755 mmHg 23%
    14:00 +45°C° 0 mm 2 mps 754 mmHg 19%
    15:00 +45°C° 0 mm 2 mps 754 mmHg 19%
    16:00 +43°C° 0 mm 2 mps 753 mmHg 19%
    17:00 +43°C° 0 mm 2 mps 753 mmHg 19%
    18:00 +41°C° 0 mm 2 mps 754 mmHg 22%
    19:00 +39°C° 0 mm 2 mps 754 mmHg 26%
    20:00 +37°C° 0 mm 2 mps 755 mmHg 29%
    21:00 +36°C° 0 mm 2 mps 756 mmHg 34%
    22:00 +34°C° 0 mm 3 mps 756 mmHg 39%
    23:00 +33°C° 0 mm 4 mps 757 mmHg 44%

    29 May, Friday

    Time Temperature Precipitation Wind Pressure Humidity
    00:00 +31°C° 0 mm 3 mps 757 mmHg 49%
    01:00 +30°C° 0 mm 3 mps 757 mmHg 54%
    02:00 +29°C° 0 mm 2 mps 757 mmHg 59%
    03:00 +28°C° 0 mm 2 mps 757 mmHg 63%
    04:00 +27°C° 0 mm 2 mps 757 mmHg 67%
    05:00 +27°C° 0 mm 2 mps 757 mmHg 71%
    06:00 +28°C° 0 mm 2 mps 757 mmHg 62%
    07:00 +30°C° 0 mm 2 mps 757 mmHg 54%
    08:00 +32°C° 0 mm 2 mps 757 mmHg 45%
    09:00 +36°C° 0 mm 2 mps 757 mmHg 37%
    10:00 +39°C° 0 mm 2 mps 756 mmHg 28%
    11:00 +42°C° 0 mm 2 mps 756 mmHg 20%
    12:00 +44°C° 0 mm 1 mps 755 mmHg 18%
    13:00 +46°C° 0 mm 1 mps 754 mmHg 17%
    14:00 +47°C° 0 mm 1 mps 753 mmHg 15%
    15:00 +46°C° 0 mm 1 mps 753 mmHg 16%
    16:00 +45°C° 0 mm 1 mps 752 mmHg 17%
    17:00 +44°C° 0 mm 1 mps 752 mmHg 18%
    18:00 +42°C° 0 mm 1 mps 753 mmHg 21%
    19:00 +41°C° 0 mm 1 mps 753 mmHg 23%
    20:00 +39°C° 0 mm 1 mps 754 mmHg 26%
    21:00 +38°C° 0.1 mm 2 mps 755 mmHg 28%
    22:00 +37°C° 0.1 mm 3 mps 755 mmHg 30%
    23:00 +35°C° 0.1 mm 4 mps 755 mmHg 32%

    30 May, Saturday

    Time Temperature Precipitation Wind Pressure Humidity
    00:00 +34°C° 0 mm 3 mps 755 mmHg 34%
    01:00 +33°C° 0 mm 3 mps 755 mmHg 36%
    02:00 +30°C° 0 mm 2 mps 755 mmHg 38%
    03:00 +29°C° 0.3 mm 2 mps 755 mmHg 44%
    04:00 +28°C° 0.3 mm 3 mps 756 mmHg 49%
    05:00 +27°C° 0.3 mm 3 mps 756 mmHg 55%
    06:00 +29°C° 0 mm 3 mps 756 mmHg 51%
    07:00 +30°C° 0 mm 3 mps 756 mmHg 47%
    08:00 +31°C° 0 mm 3 mps 757 mmHg 42%
    09:00 +35°C° 0 mm 3 mps 756 mmHg 36%
    10:00 +38°C° 0 mm 2 mps 756 mmHg 29%
    11:00 +41°C° 0 mm 2 mps 756 mmHg 22%
    12:00 +42°C° 0 mm 2 mps 755 mmHg 21%
    13:00 +45°C° 0 mm 2 mps 754 mmHg 19%
    14:00 +46°C° 0 mm 2 mps 753 mmHg 17%
    15:00 +46°C° 0 mm 2 mps 753 mmHg 17%
    16:00 +45°C° 0 mm 2 mps 753 mmHg 18%
    17:00 +45°C° 0 mm 3 mps 752 mmHg 18%
    18:00 +42°C° 0 mm 2 mps 753 mmHg 20%
    19:00 +40°C° 0 mm 2 mps 754 mmHg 22%
    20:00 +38°C° 0 mm 2 mps 754 mmHg 24%
    21:00 +37°C° 0 mm 3 mps 755 mmHg 27%
    22:00 +36°C° 0 mm 3 mps 756 mmHg 31%
    23:00 +35°C° 0 mm 4 mps 757 mmHg 34%

    31 May, Sunday

    Time Temperature Precipitation Wind Pressure Humidity
    00:00 +34°C° 0 mm 4 mps 756 mmHg 39%
    01:00 +33°C° 0 mm 4 mps 756 mmHg 43%
    02:00 +30°C° 0 mm 3 mps 756 mmHg 48%
    03:00 +30°C° 0.1 mm 3 mps 756 mmHg 50%
    04:00 +30°C° 0.1 mm 3 mps 757 mmHg 53%
    05:00 +29°C° 0.1 mm 3 mps 757 mmHg 56%
    06:00 +30°C° 0 mm 3 mps 757 mmHg 53%
    07:00 +30°C° 0 mm 3 mps 757 mmHg 51%
    08:00 +32°C° 0 mm 4 mps 757 mmHg 48%
    09:00 +35°C° 0 mm 3 mps 756 mmHg 40%
    10:00 +38°C° 0 mm 3 mps 756 mmHg 32%
    11:00 +42°C° 0 mm 3 mps 756 mmHg 24%
    12:00 +44°C° 0 mm 3 mps 755 mmHg 20%
    13:00 +45°C° 0 mm 2 mps 754 mmHg 17%
    14:00 +47°C° 0 mm 2 mps 754 mmHg 13%
    15:00 +46°C° 0 mm 2 mps 753 mmHg 13%
    16:00 +46°C° 0 mm 2 mps 753 mmHg 12%
    17:00 +45°C° 0 mm 2 mps 753 mmHg 12%
    18:00 +42°C° 0 mm 2 mps 753 mmHg 15%
    19:00 +40°C° 0 mm 2 mps 754 mmHg 18%
    20:00 +38°C° 0 mm 2 mps 755 mmHg 20%
    21:00 +37°C° 0 mm 3 mps 755 mmHg 26%
    22:00 +36°C° 0 mm 3 mps 756 mmHg 32%
    23:00 +34°C° 0 mm 4 mps 757 mmHg 37%
    Show more